Tracking 20093 objects as of 14-Dec-2019
HD Live streaming from Space Station
objects crossing your sky now

FENGYUN 1C DEB

Track FENGYUN 1C DEB now!
10-day predictions


NORAD ID: 31851
Int'l Code: 1999-025CJR
Perigee: 834.4 km
Apogee: 1,168.6 km
Inclination: 98.8 °
Period: 105.0 minutes
Semi major axis: 7372 km
RCS: 0.0112 m2 (small)
Launch date: May 10, 1999
Source: People's Republic of China (PRC)
Launch site: Taiyaun Space Center, China (TSC)

Note: This is SATELLITE DEBRIS
aabbcc
Your satellite tracking list
Your tracking list is empty




NASA's NSSDC Master Catalog

Two Line Element Set (TLE):
1 31851U 99025CJR 19347.21009715  .00000657  00000-0  64464-3 0  9997
2 31851  98.7941 333.6211 0226649  10.4367 350.1374 13.71446484625285
Source of the keplerian elements: AFSPC